Regional Weather Roundup
Issued by NWS State College, PA

Home | Current Version | Previous Version | Text Only | Print | Product List | Glossary Off
Versions: 1 2 3 4 5 6 7 8 9 10 11 12 13 14 15 16 17 18 19 20 21 22 23 24 25 26 27 28 29 30 31 32 33 34 35 36 37 38 39 40 41 42 43 44 45 46 47 48 49 50

000
ASUS41 KCTP 311010
RWRCTP

REGIONAL WEATHER ROUNDUP
NATIONAL WEATHER SERVICE STATE COLLEGE PA
600 AM EDT FRI JUL 31 2015

Note: "fair" indicates few or no clouds below 12,000 feet with no
significant weather and/or obstructions to visibility.

* = STATION THAT DOES NOT REPORT PRECIPITATION /E.G. RAIN...SNOW...ETC/
    THUNDER OR FOG.

PAZ002>004-007>009-013>016-020>023-029>032-311100-
WESTERN PENNSYLVANIA

CITY           SKY/WX    TMP DP  RH WIND       PRES   REMARKS
ERIE           CLEAR     67  61  81 S7        29.93S
MEADVILLE      CLEAR     65  59  81 SW5       29.97S
FRANKLIN*      CLEAR     61  55  82 W7        29.99S
NEW CASTLE     FAIR      60  60 100 CALM      29.99S
BEAVER COUNTY  NOT AVBL
BUTLER*        CLEAR     59  55  88 CALM      30.00S
PITTSBURGH INT PTCLDY    65  57  75 W3        29.99R
PITTSBURGH     CLEAR     66  54  65 W7        29.99R
INDIANA*       MOCLDY    64  61  88 CALM      30.02S
LATROBE        PTCLDY    64  61  88 CALM      30.00
WASHINGTON CO* NOT AVBL
$$

PAZ004>006-010>012-017>019-024>028-033>037-041-042-045-046-049>053-311100-
CENTRAL PENNSYLVANIA

CITY           SKY/WX    TMP DP  RH WIND       PRES   REMARKS
BRADFORD       CLEAR     54  51  90 CALM      29.98R
DUBOIS         PTCLDY    60  55  83 SW5       29.98R
CLEARFIELD     PTCLDY    59  55  87 CALM      29.98R
JOHNSTOWN      CLEAR     64  55  72 W7        30.01S
ALTOONA        CLEAR     62  56  80 CALM      29.98S
STATE COLLEGE  CLEAR     63  57  82 CALM      29.95S
WILLIAMSPORT   CLEAR     61  57  87 CALM      29.91R
SELINSGROVE    CLEAR     59  57  93 CALM      29.92R
FT INDIANTOWN  CLEAR     60  59  94 CALM      29.91S
CAPITAL CITY   CLEAR     64  58  80 SW5       29.92R
HARRISBURG     PTCLDY    67  61  81 CALM      29.91R
YORK           CLEAR     59  58  96 CALM      29.92F
$$

PAZ038>040-043-044-047-048-054-055-060>062-067>071-311100-
EASTERN PENNSYLVANIA

CITY           SKY/WX    TMP DP  RH WIND       PRES   REMARKS
SCRANTON       CLEAR     62  57  83 CALM      29.91R
MOUNT POCONO   CLEAR     57  54  89 NW3       29.94R
ALLENTOWN      CLEAR     62  58  86 SW3       29.89S
QUAKERTOWN*    SUNNY     59  59 100 CALM      29.91R
READING        CLEAR     64  62  93 CALM      29.89S
LANCASTER      CLEAR     64  59  83 W5        29.91S
COATESVILLE    SUNNY     63  59  88 W5        29.92S
POTTSTOWN      CLEAR     63  61  93 CALM      29.91S
BLUE BELL      CLEAR     63  63 100 CALM      29.89R
DOYLESTOWN     CLEAR     64  62  93 CALM      29.89R
WILLOW GROVE   NOT AVBL
NORTH PHILA    CLEAR     71  61  70 NW6       29.89S
PHILADELPHIA   PTCLDY    70  60  70 CALM      29.89R
$$



USA.gov is the U.S. government's official web portal to all federal, state and local government web resources and services.